Location: Township of Marena
(38.1747°N, 99.6798°W)
Time: 14:53:23
(UTC+00:00)

Meteor 2-8 Rocket - Pass Details

Date: 26 October 2020
Orbit: 937 x 957 km, 82.5° (Epoch: 28 November)

Event Time Altitude Azimuth Distance (km) Brightness Sun altitude
Rises 00:42:36 0° 176° (S) 3,593 7.5 -11.6°
Reaches altitude 10° 00:45:06 10° 174° (S) 2,655 6.8 -12.1°
Maximum altitude 00:51:05 65° 94° (E) 1,040 4.4 -13.2°
Drops below altitude 10° 00:57:09 10° 14° (NNE) 2,685 6.6 -14.4°
Sets 00:59:40 0° 11° (N) 3,637 7.3 -14.9°
